{"data":{"norad_id":47825,"epoch":"2026-09-20T01:26:07.863936Z","epoch_age_seconds":67253,"freshness":"FRESH","line1":"1 47825U 21018AQ  26263.05981324 -.00001271  00000+0 -29207-4 0  9995","line2":"2 47825  53.1617  58.2706 0001404  76.7100 283.4058 15.31695839306514","mean_motion":15.31695839,"eccentricity":0.0001404,"inclination_deg":53.1617,"raan_deg":58.2706,"arg_perigee_deg":76.71,"mean_anomaly_deg":283.4058,"bstar":-2.9207e-5,"rev_number":30651,"period_min":94.013443357014,"perigee_km":469.79081490659,"apogee_km":471.71398304982,"semimajor_km":6848.8893989782,"source":"CELESTRAK","updated_at":"2026-09-20T09:00:38.750423Z"}}